Danbury, CT

11:33 PM EDT on September 21, 2017 (GMT -0400)
Danbury Municipal

Weather History for KDXR - January, 2014

Change the Weather History Date:

Wednesday, January 8, 2014

  Actual Average Record
Temperature  
Mean Temperature 12 °F -  
Max Temperature 19 °F 34 °F 64 °F (2008)
Min Temperature 5 °F 18 °F -2 °F (1968)
Degree Days  
Heating Degree Days 53    
Moisture  
Dew Point -4 °F    
Average Humidity 49    
Maximum Humidity 55    
Minimum Humidity 38    
Precipitation  
Precipitation 0.00 in - - ()
Sea Level Pressure  
Sea Level Pressure 30.46 in    
Wind  
Wind Speed 6 mph (WSW)    
Max Wind Speed 10 mph    
Max Gust Speed -    
Visibility 10 miles    
Events      
Averages and records for this station are not official NWS values.
T = Trace of Precipitation, MM = Missing Value Source: NWS Daily Summary

Daily Weather History Graph

Daily Weather History Graph

Search for Another Location

Airport or City:

Trip Planner

Search our weather history database for the weather conditions in past years. The results will help you decide how hot, cold, wet, or windy it might be!

Date:

Astronomy

Jan. 08, 2014 Rise Set
Actual Time 7:19 AM EST 4:41 PM EST
Civil Twilight 6:48 AM EST 5:12 PM EST
Nautical Twilight 6:14 AM EST 5:47 PM EST
Astronomical Twilight 5:41 AM EST 6:20 PM EST
Moon 11:35 AM EST (1/8) 12:20 AM EST (1/8)
Length of Visible Light 10h 23m
Length of Day
9h 22m
First Quarter, 56% of the Moon is Illuminated
Jan 8
First Quarter
Jan 15
Full
Jan 24
Last Quarter
Jan 30
New
Feb 6
First Quarter

Hourly Weather History & Observations

Time (EST) Temp. Windchill Dew Point Humidity Pressure Visibility Wind Dir Wind Speed Gust Speed Precip Events Conditions
12:53 AM 5.0 °F -6.9 °F -9.9 °F 50% 30.35 in 10.0 mi WSW 6.9 mph - N/A   Clear
1:53 AM 5.0 °F -6.9 °F -9.0 °F 52% 30.38 in 10.0 mi WSW 6.9 mph - N/A   Clear
2:53 AM 5.0 °F -6.9 °F -9.0 °F 52% 30.41 in 10.0 mi WSW 6.9 mph - N/A   Clear
3:53 AM 5.0 °F -5.6 °F -8.0 °F 55% 30.41 in 10.0 mi West 5.8 mph - N/A   Clear
4:53 AM 5.0 °F -2.1 °F -8.0 °F 55% 30.43 in 10.0 mi WSW 3.5 mph - N/A   Clear
5:53 AM 5.0 °F -6.9 °F -8.0 °F 55% 30.44 in 10.0 mi West 6.9 mph - N/A   Clear
6:53 AM 6.1 °F -7.8 °F -8.0 °F 53% 30.44 in 10.0 mi WNW 9.2 mph - N/A   Clear
7:53 AM 6.1 °F -2.8 °F -7.1 °F 55% 30.48 in 10.0 mi WSW 4.6 mph - N/A   Clear
8:53 AM 9.0 °F -3.2 °F -6.0 °F 51% 30.52 in 10.0 mi WSW 8.1 mph - N/A   Clear
9:53 AM 10.9 °F -2.6 °F -6.0 °F 47% 30.52 in 10.0 mi West 10.4 mph - N/A   Clear
10:53 AM 12.9 °F 2.6 °F -5.1 °F 45% 30.51 in 10.0 mi SW 6.9 mph - N/A   Clear
11:53 AM 15.1 °F 5.2 °F -2.9 °F 45% 30.48 in 10.0 mi WSW 6.9 mph - N/A   Clear
12:53 PM 17.1 °F 5.8 °F -2.9 °F 41% 30.45 in 10.0 mi WSW 9.2 mph - N/A   Clear
1:53 PM 18.0 °F 8.7 °F -2.0 °F 41% 30.45 in 10.0 mi WNW 6.9 mph - N/A   Clear
2:53 PM 19.9 °F 9.3 °F -2.0 °F 38% 30.45 in 10.0 mi West 9.2 mph - N/A   Clear
3:53 PM 19.0 °F 10.0 °F -2.0 °F 40% 30.45 in 10.0 mi West 6.9 mph - N/A   Clear
4:53 PM 17.1 °F 11.7 °F -0.9 °F 45% 30.47 in 10.0 mi Variable 3.5 mph - N/A   Clear
5:53 PM 17.1 °F - -0.0 °F 47% 30.47 in 10.0 mi Calm Calm - N/A   Clear
6:53 PM 16.0 °F 10.4 °F -0.0 °F 49% 30.50 in 10.0 mi SW 3.5 mph - N/A   Clear
7:53 PM 17.1 °F 11.7 °F -0.0 °F 47% 30.49 in 10.0 mi West 3.5 mph - N/A   Clear
8:53 PM 16.0 °F 8.8 °F 1.0 °F 52% 30.50 in 10.0 mi WSW 4.6 mph - N/A   Clear
9:53 PM 16.0 °F 7.4 °F 1.9 °F 54% 30.51 in 10.0 mi WSW 5.8 mph - N/A   Mostly Cloudy
10:53 PM 16.0 °F 7.4 °F 1.9 °F 54% 30.51 in 10.0 mi WSW 5.8 mph - N/A   Clear
11:53 PM 17.1 °F 8.7 °F 1.9 °F 52% 30.50 in 10.0 mi WSW 5.8 mph - N/A   Mostly Cloudy